| time (UTC) | temp C | wind direction | speed KPH | gust KPH | rain 1hr cm | rain 24hr cm | rain mn cm | humidity % | barometer mb |
| 20260507050038 | 10 | 360 | 1.6 | 8.0 | 0.05 | 1.04 | 0.05 | 83 | 1011.1 |
| 20260507044529 | 11 | 333 | 1.6 | 11.3 | 0.03 | 1.02 | 0.03 | 81 | 1011.2 |
| 20260507043028 | 11 | 2 | 1.6 | 9.7 | 0.03 | 1.02 | 0.03 | 80 | 1011.1 |
| 20260507041524 | 11 | 3 | 3.2 | 12.9 | 0.03 | 1.02 | 0.03 | 80 | 1010.9 |
| 20260507040024 | 12 | 27 | 1.6 | 8.0 | 0.00 | 0.99 | 0.00 | 80 | 1010.7 |
| 20260507034529 | 12 | 356 | 0.0 | 6.4 | 0.00 | 0.99 | 0.99 | 80 | 1010.8 |
| 20260507033028 | 12 | 28 | 1.6 | 6.4 | 0.00 | 0.99 | 0.99 | 78 | 1010.4 |
| 20260507031516 | 12 | 8 | 3.2 | 14.5 | 0.00 | 0.99 | 0.99 | 78 | 1010.9 |
| 20260507030026 | 12 | 360 | 3.2 | 16.1 | 0.00 | 0.99 | 0.99 | 79 | 1010.3 |
| 20260507024528 | 13 | 27 | 0.0 | 8.0 | 0.00 | 0.99 | 0.99 | 81 | 1010.5 |
| 20260507023026 | 13 | 21 | 3.2 | 8.0 | 0.00 | 0.99 | 0.99 | 81 | 1010.3 |
| 20260507021527 | 13 | 39 | 6.4 | 8.0 | 0.00 | 0.99 | 0.99 | 82 | 1010.3 |
| 20260507020020 | 13 | 15 | 4.8 | 11.3 | 0.00 | 0.99 | 0.99 | 82 | 1010.4 |
| 20260507014524 | 14 | 349 | 3.2 | 17.7 | 0.00 | 0.99 | 0.99 | 82 | 1010.4 |
| 20260507013028 | 15 | 330 | 1.6 | 6.4 | 0.00 | 0.99 | 0.99 | 84 | 1010.3 |
| 20260507011534 | 15 | 303 | 3.2 | 8.0 | 0.00 | 0.99 | 0.99 | 84 | 1010.2 |
| 20260507010020 | 15 | 282 | 3.2 | 8.0 | 0.00 | 0.99 | 0.99 | 84 | 1010.0 |
| 20260507004522 | 15 | 285 | 1.6 | 4.8 | 0.00 | 0.99 | 0.99 | 85 | 1009.7 |
| 20260507003004 | 15 | 279 | 3.2 | 9.7 | 0.03 | 0.99 | 0.99 | 84 | 1009.5 |
| 20260507001508 | 15 | 305 | 4.8 | 11.3 | 0.20 | 0.99 | 0.99 | 84 | 1009.2 |
| 20260507000012 | 16 | 294 | 1.6 | 8.0 | 0.20 | 0.99 | 0.99 | 87 | 1008.8 |
| 20260506234520 | 16 | 309 | 1.6 | 4.8 | 0.20 | 0.99 | 0.99 | 87 | 1008.5 |
| 20260506233010 | 17 | 293 | 4.8 | 6.4 | 0.18 | 0.97 | 0.97 | 87 | 1008.4 |
| 20260506231506 | 17 | 238 | 3.2 | 6.4 | 0.00 | 0.79 | 0.79 | 86 | 1008.0 |
| 20260506230019 | 17 | 246 | 6.4 | 12.9 | 0.00 | 0.79 | 0.79 | 85 | 1008.0 |
| 20260506224518 | 17 | 277 | 6.4 | 11.3 | 0.00 | 0.79 | 0.79 | 85 | 1007.7 |
| 20260506223023 | 18 | 183 | 1.6 | 12.9 | 0.00 | 0.79 | 0.79 | 83 | 1007.6 |
| 20260506221504 | 18 | 221 | 6.4 | 9.7 | 0.00 | 0.79 | 0.79 | 81 | 1007.7 |
| 20260506220016 | 18 | 229 | 4.8 | 14.5 | 0.00 | 0.79 | 0.79 | 80 | 1007.5 |
| 20260506214519 | 18 | 232 | 4.8 | 12.9 | 0.00 | 0.79 | 0.79 | 80 | 1007.3 |
| 20260506213018 | 18 | 293 | 3.2 | 9.7 | 0.00 | 0.79 | 0.79 | 80 | 1007.2 |
| 20260506211530 | 18 | 221 | 3.2 | 17.7 | 0.00 | 0.79 | 0.79 | 80 | 1007.3 |
| 20260506210005 | 18 | 264 | 3.2 | 16.1 | 0.00 | 0.79 | 0.79 | 79 | 1007.0 |
| 20260506204516 | 18 | 257 | 6.4 | 14.5 | 0.00 | 0.79 | 0.79 | 80 | 1006.9 |
| 20260506203019 | 19 | 235 | 4.8 | 14.5 | 0.00 | 0.79 | 0.79 | 78 | 1006.9 |
| 20260506201536 | 18 | 243 | 6.4 | 11.3 | 0.00 | 0.79 | 0.79 | 80 | 1006.9 |
| 20260506200007 | 18 | 244 | 4.8 | 17.7 | 0.00 | 0.79 | 0.79 | 82 | 1007.0 |
| 20260506194512 | 17 | 240 | 9.7 | 19.3 | 0.00 | 0.79 | 0.79 | 81 | 1007.1 |
| 20260506193024 | 17 | 203 | 8.0 | 16.1 | 0.00 | 0.79 | 0.79 | 82 | 1007.2 |
| 20260506191524 | 17 | 270 | 11.3 | 17.7 | 0.00 | 0.79 | 0.79 | 82 | 1007.1 |
| 20260506190030 | 17 | 245 | 3.2 | 17.7 | 0.00 | 0.79 | 0.79 | 84 | 1007.1 |
| 20260506184518 | 17 | 252 | 8.0 | 20.9 | 0.00 | 0.79 | 0.79 | 84 | 1007.4 |
| 20260506183016 | 16 | 296 | 8.0 | 22.5 | 0.00 | 0.79 | 0.79 | 85 | 1007.6 |
| 20260506181522 | 16 | 221 | 6.4 | 16.1 | 0.00 | 0.79 | 0.79 | 86 | 1007.7 |
| 20260506180031 | 16 | 214 | 6.4 | 14.5 | 0.00 | 0.79 | 0.79 | 87 | 1007.8 |
| 20260506174530 | 16 | 276 | 6.4 | 20.9 | 0.00 | 0.79 | 0.79 | 86 | 1007.7 |
| 20260506173014 | 16 | 246 | 9.7 | 16.1 | 0.00 | 0.79 | 0.79 | 86 | 1007.6 |
| 20260506171530 | 16 | 203 | 8.0 | 16.1 | 0.00 | 0.79 | 0.79 | 87 | 1007.7 |
| 20260506170024 | 16 | 255 | 4.8 | 14.5 | 0.00 | 0.79 | 0.79 | 87 | 1007.7 |
| 20260506164529 | 16 | 217 | 9.7 | 19.3 | 0.00 | 0.79 | 0.79 | 87 | 1007.8 |
| 20260506163034 | 16 | 245 | 6.4 | 25.7 | 0.05 | 0.79 | 0.79 | 88 | 1007.7 |
| 20260506161517 | 16 | 247 | 8.0 | 19.3 | 0.10 | 0.79 | 0.79 | 88 | 1008.0 |
| 20260506160020 | 16 | 252 | 8.0 | 22.5 | 0.20 | 0.79 | 0.79 | 88 | 1007.9 |
| 20260506154529 | 16 | 183 | 8.0 | 20.9 | 0.33 | 0.79 | 0.79 | 89 | 1007.6 |
| 20260506153026 | 15 | 176 | 3.2 | 20.9 | 0.36 | 0.74 | 0.74 | 89 | 1007.5 |
| 20260506151521 | 15 | 207 | 1.6 | 12.9 | 0.36 | 0.69 | 0.69 | 89 | 1008.1 |
| 20260506150020 | 15 | 195 | 6.4 | 16.1 | 0.28 | 0.58 | 0.58 | 88 | 1008.6 |
| 20260506144524 | 15 | 191 | 6.4 | 19.3 | 0.25 | 0.46 | 0.46 | 88 | 1009.1 |
| 20260506143028 | 16 | 207 | 9.7 | 14.5 | 0.23 | 0.38 | 0.38 | 86 | 1008.7 |
| 20260506141527 | 16 | 214 | 3.2 | 12.9 | 0.18 | 0.33 | 0.33 | 86 | 1008.2 |
| 20260506140025 | 16 | 207 | 3.2 | 9.7 | 0.18 | 0.30 | 0.30 | 85 | 1008.2 |
| 20260506134530 | 16 | 188 | 0.0 | 3.2 | 0.10 | 0.20 | 0.20 | 84 | 1008.4 |
| 20260506133030 | 16 | 232 | 1.6 | 8.0 | 0.08 | 0.15 | 0.15 | 84 | 1008.6 |
| 20260506131527 | 16 | 241 | 1.6 | 8.0 | 0.10 | 0.15 | 0.15 | 83 | 1008.5 |
| 20260506130018 | 16 | 174 | 1.6 | 6.4 | 0.10 | 0.13 | 0.13 | 84 | 1008.6 |
| 20260506124522 | 16 | 233 | 0.0 | 3.2 | 0.08 | 0.10 | 0.10 | 82 | 1008.8 |
| 20260506123006 | 16 | 231 | 1.6 | 6.4 | 0.08 | 0.08 | 0.08 | 79 | 1009.0 |
| 20260506121508 | 16 | 266 | 1.6 | 4.8 | 0.05 | 0.05 | 0.05 | 78 | 1009.1 |
| 20260506120018 | 16 | 248 | 0.0 | 6.4 | 0.03 | 0.03 | 0.03 | 76 | 1008.7 |
| 20260506114533 | 17 | 253 | 1.6 | 4.8 | 0.03 | 0.03 | 0.03 | 74 | 1008.5 |
| 20260506113004 | 17 | 187 | 0.0 | 9.7 | 0.00 | 0.00 | 0.00 | 69 | 1008.3 |
| 20260506111508 | 18 | 258 | 6.4 | 12.9 | 0.00 | 0.00 | 0.00 | 65 | 1008.3 |
| 20260506110010 | 18 | 197 | 4.8 | 17.7 | 0.00 | 0.00 | 0.00 | 65 | 1007.9 |
| 20260506104516 | 18 | 207 | 9.7 | 20.9 | 0.00 | 0.00 | 0.00 | 64 | 1007.9 |
| 20260506103022 | 18 | 211 | 4.8 | 17.7 | 0.00 | 0.00 | 0.00 | 63 | 1007.6 |
| 20260506101503 | 18 | 269 | 6.4 | 16.1 | 0.00 | 0.00 | 0.00 | 63 | 1007.4 |
| 20260506100020 | 18 | 240 | 3.2 | 9.7 | 0.00 | 0.00 | 0.00 | 63 | 1007.5 |
| 20260506094516 | 18 | 164 | 3.2 | 9.7 | 0.00 | 0.00 | 0.00 | 62 | 1007.5 |
| 20260506093018 | 18 | 288 | 1.6 | 12.9 | 0.00 | 0.00 | 0.00 | 62 | 1007.6 |
| 20260506091524 | 18 | 258 | 1.6 | 8.0 | 0.00 | 0.00 | 0.00 | 60 | 1007.7 |
| 20260506090009 | 19 | 223 | 6.4 | 11.3 | 0.00 | 0.00 | 0.00 | 58 | 1007.8 |
| 20260506084512 | 19 | 240 | 4.8 | 14.5 | 0.00 | 0.00 | 0.00 | 57 | 1007.6 |
| 20260506083018 | 20 | 235 | 3.2 | 16.1 | 0.00 | 0.00 | 0.00 | 56 | 1007.7 |
| 20260506081521 | 20 | 210 | 8.0 | 17.7 | 0.00 | 0.00 | 0.00 | 55 | 1007.7 |
| 20260506073014 | 20 | 264 | 4.8 | 16.1 | 0.00 | 0.00 | 0.00 | 54 | 1007.9 |
| 20260506071522 | 20 | 236 | 6.4 | 20.9 | 0.00 | 0.00 | 0.00 | 53 | 1008.0 |
| 20260506061518 | 20 | 191 | 4.8 | 16.1 | 0.00 | 0.00 | 0.00 | 52 | 1008.6 |